Preview of NWS' New Version of Forecast
This preview is not operational and should not be used for support decisions.

Regional Weather Roundup (RWR)

Issued by National Weather Service (NWS)

                            
000
ASUS45 KBOI 162110
RWRID 

IDAHO REGIONAL WEATHER ROUNDUP
NATIONAL WEATHER SERVICE BOISE ID
300 PM MDT TUE APR 16 2019

NOTE: "FAIR" INDICATES FEW OR NO CLOUDS BELOW 12000 FEET
WITH NO SIGNIFICANT WEATHER AND/OR OBSTRUCTIONS TO VISIBILITY

IDZ012-014-162200-
SOUTHWEST IDAHO

  
CITY           SKY/WX    TMP DP  RH WIND       PRES   REMARKS
BOISE          PTSUNNY   54  35  48 NW14G24   29.97R                  
CALDWELL       PTSUNNY   57  38  48 W14       29.98R                  
MOUNTAIN HOME  MOSUNNY   55  36  47 NW15G28   29.95R                  
$$

IDZ016-017-162200-
SOUTHCENTRAL IDAHO

  
CITY           SKY/WX    TMP DP  RH WIND       PRES   REMARKS
BURLEY         PTSUNNY   51  34  52 W18G28    29.90R                  
JEROME         SUNNY     53  34  48 W28G37    29.91R                  
TWIN FALLS     MOSUNNY   52  35  52 W22G32    29.92R                  
$$

IDZ019>023-162200-
SOUTHEAST IDAHO

  
CITY           SKY/WX    TMP DP  RH WIND       PRES   REMARKS
IDAHO FALLS    CLOUDY    50  37  61 S18       29.85F                  
POCATELLO      CLOUDY    52  36  54 W20       29.90R                  
REXBURG        LGT RAIN  46  37  71 S14G23    29.84S                  
$$

IDZ006-010-011-018-031-032-162200-
CENTRAL IDAHO MOUNTAINS

  
CITY           SKY/WX    TMP DP  RH WIND       PRES   REMARKS
MCCALL         LGT RAIN  40  33  76 SW8       29.93R WCI  34          
HAILEY         MOSUNNY   54  25  32 NW7       29.85R                  
STANLEY          N/A     42  25  50 N7        29.91R                  
SALMON         LGT RAIN  47  40  76 SE7       29.88R                  
CHALLIS        CLOUDY    53  24  32 W10       29.83R                  
$$

IDZ002-004-006-007-026-162200-
NORTHERN IDAHO

  
CITY           SKY/WX    TMP DP  RH WIND       PRES   REMARKS
LEWISTON       PTSUNNY   57  38  48 S3        29.98R                  
LOWELL           N/A     54  43  66 VRB6      29.98S                  
COEUR D'ALENE  SUNNY     57  27  31 SW10      29.93S                  
MULLAN PASS    PTSUNNY   36  24  62 VRB3      29.90R                  
$$